This is the latest recevied weather packets stored in our database for station/object YO6IKB-10. If no packets are shown the sender has not sent any weather packets the latest 10 day(s).
| Time | Temp. | Humidity | Pressure | Rain* | Wind** | Luminosity | Snow |
|---|---|---|---|---|---|---|---|
| 1778009897 | 17.22° C | 51% | 1009.4 hPa | 0 mm | - | - | - |
| 1778009596 | 17.22° C | 51% | 1009.5 hPa | 0 mm | - | - | - |
| 1778009296 | 17.22° C | 51% | 1009.5 hPa | 0 mm | - | - | - |
| 1778008996 | 17.22° C | 51% | 1009.4 hPa | 0 mm | - | - | - |
| 1778008696 | 17.22° C | 50% | 1009.4 hPa | 0 mm | - | - | - |
| 1778008395 | 17.78° C | 50% | 1009.4 hPa | 0 mm | - | - | - |
| 1778008095 | 17.78° C | 50% | 1009.3 hPa | 0 mm | - | - | - |
| 1778007795 | 17.78° C | 49% | 1009.4 hPa | 0 mm | - | - | - |
| 1778007494 | 17.78° C | 49% | 1009.4 hPa | 0 mm | - | - | - |
| 1778007194 | 18.33° C | 48% | 1009.5 hPa | 0 mm | - | - | - |
| 1778006894 | 18.33° C | 48% | 1009.4 hPa | 0 mm | - | - | - |
| 1778006594 | 18.33° C | 47% | 1009.2 hPa | 0 mm | - | - | - |
| 1778006293 | 18.89° C | 47% | 1009.2 hPa | 0 mm | - | - | - |
| 1778005993 | 18.89° C | 47% | 1009.2 hPa | 0 mm | - | - | - |
| 1778005693 | 18.89° C | 47% | 1009.1 hPa | 0 mm | - | - | - |
| 1778005092 | 18.89° C | 47% | 1009 hPa | 0 mm | - | - | - |
| 1778004792 | 19.44° C | 47% | 1009 hPa | 0 mm | - | - | - |
| 1778003591 | 20° C | 46% | 1008.3 hPa | 0 mm | - | - | - |
| 1778002990 | 20.56° C | 45% | 1008.3 hPa | 0 mm | - | - | - |
| 1778002690 | 20.56° C | 45% | 1008.3 hPa | 0 mm | - | - | - |
| 1778002389 | 20.56° C | 44% | 1008.3 hPa | 0 mm | - | - | - |
| 1778002089 | 21.67° C | 43% | 1008.3 hPa | 0 mm | - | - | - |
| 1778001789 | 22.22° C | 39% | 1008.2 hPa | 0 mm | - | - | - |
| 1778001489 | 22.78° C | 37% | 1008.2 hPa | 0 mm | - | - | - |
| 1778001188 | 23.33° C | 38% | 1008.2 hPa | 0 mm | - | - | - |
* Rain latest hour (hover to see other rain measurements)
** Current wind speed in m/s (hover to see current wind gust speed)